Wind_Speed
26 27 30 40 35 25 15 6 0 12 20 15 18 17 18 19 23 25 25 26 25 24 24 23 21 19 21 20 15 14 14 15 17 14 15 15 14 16 20 22 22 22 23 23
26 26 33 32 25 25 25 25 15 21 15 22 25 25 24 24 27 31 32 30 30 27 24 21 19 16 13 9 8 9 14 13 13 15 16 17 17 18 19 19 21 23 25 26
30 29 29 25 28 32 25 28 22 17 23 26 32 30 30 32 35 33 32 30 26 23 18 14 12 8 8 8 7 12 16 14 15 14 15 17 19 19 20 22 24 24 26 30
30 28 27 26 21 22 30 31 27 25 25 30 32 31 32 27 30 30 24 21 20 18 14 12 10 8 6 7 7 10 12 13 15 17 19 22 22 22 21 22 23 25 30 35
30 29 27 28 24 24 27 30 33 27 29 31 30 30 31 29 27 25 22 23 21 19 16 11 10 11 12 12 12 11 11 13 16 19 21 22 22 23 24 27 31 34 35 34
31 30 29 28 27 25 28 29 28 31 32 31 27 28 28 28 26 23 19 19 17 18 18 15 12 9 9 9 10 12 14 15 17 19 22 24 27 29 30 31 34 35 34 40
28 30 31 31 28 26 27 26 27 28 29 30 28 24 23 22 24 22 18 18 18 17 14 11 8 7 8 10 12 13 16 19 20 22 26 28 31 32 34 38 41 41 41 43
38 32 31 31 33 33 31 24 24 26 27 26 26 24 24 22 20 20 20 19 14 11 9 8 7 6 7 10 13 17 18 21 24 27 31 34 37 39 41 44 47 50 52 53
38 40 40 36 36 34 30 32 27 26 24 25 25 25 23 23 22 19 14 13 13 9 5 3 3 6 9 13 16 19 21 24 27 31 35 40 43 46 47 49 53 57 60 62
50 46 42 42 40 37 33 33 32 28 24 22 22 23 24 22 19 18 17 12 8 6 4 2 6 10 14 17 19 21 23 26 30 34 39 43 47 50 53 56 59 62 65 68
55 51 48 47 41 40 38 36 33 31 30 28 27 25 25 24 22 18 15 13 12 9 6 7 10 13 17 21 24 24 26 30 34 37 41 46 50 54 58 61 63 64 70 73
56 54 51 46 48 46 44 41 38 34 32 33 30 28 24 19 18 18 16 14 12 10 10 11 12 15 19 23 26 29 31 34 38 42 46 50 53 58 62 65 67 69 74 78
63 58 58 57 54 49 43 41 40 40 41 36 31 28 24 23 18 20 19 16 15 14 14 15 17 19 22 26 30 32 36 39 43 46 49 52 56 61 66 69 70 73 77 80
74 69 60 56 51 51 51 47 45 43 39 37 34 33 28 27 21 21 23 22 19 19 17 21 22 25 25 29 33 36 38 42 46 50 53 55 59 64 69 71 73 77 81 81
78 68 64 61 61 59 55 53 51 46 43 39 39 34 32 28 28 30 26 26 25 25 24 24 26 28 30 31 35 39 42 45 49 53 56 58 63 68 72 74 76 81 81 84
79 70 70 66 64 66 62 58 54 50 49 45 43 39 39 34 33 30 26 27 31 31 30 31 30 31 34 37 40 43 46 49 53 56 58 62 65 71 74 77 79 82 83 86
81 75 74 69 67 65 66 60 56 54 52 48 46 42 44 41 35 30 30 30 34 34 36 37 37 38 39 42 45 47 50 52 56 59 61 65 69 73 77 80 83 82 85 84
82 80 76 71 73 72 57 60 58 55 54 52 51 50 50 45 39 34 31 32 35 37 40 40 42 44 45 47 50 52 54 58 59 63 65 69 74 76 80 83 83 83 84 75
84 81 77 76 76 61 63 61 62 60 57 54 54 54 53 51 45 40 37 36 41 42 39 44 45 47 49 51 55 57 59 61 64 66 69 74 76 80 83 85 83 87 78 70
88 85 80 78 76 66 61 63 65 68 63 61 59 58 56 56 55 49 43 41 46 49 40 48 51 49 52 55 59 61 62 66 68 69 73 77 81 83 85 85 88 80 71 68
95 91 86 80 75 72 69 72 74 68 64 64 61 62 62 61 61 59 53 54 48 43 50 52 54 55 56 59 61 63 66 68 69 72 77 81 83 85 85 87 84 69 69 57
101 97 91 86 79 73 72 82 75 68 69 68 65 62 62 64 65 65 58 56 53 52 56 57 56 59 60 62 64 66 67 69 71 77 80 83 84 85 85 86 71 68 59 55
108 103 96 91 80 79 80 80 80 78 72 69 68 65 63 65 69 69 62 58 57 57 61 61 62 63 64 66 66 67 69 72 77 80 84 85 85 85 86 72 66 60 53 54
108 103 98 92 91 88 89 85 83 81 73 71 72 71 70 70 74 70 65 64 64 66 63 64 66 68 68 68 69 71 73 76 80 83 85 86 85 81 72 67 60 52 49 53
105 101 98 95 95 95 90 89 88 85 80 78 73 72 71 75 75 72 68 68 69 70 69 70 71 71 70 70 72 74 75 80 81 85 86 85 80 69 65 61 55 52 49 56
101 103 102 95 97 97 94 93 93 90 84 82 78 73 76 79 74 72 70 71 73 72 71 73 74 74 74 75 75 78 79 80 85 85 84 75 65 62 59 57 55 52 55 58
Wind_Direction
178 178 177 171 180 176 151 74 66 143 149 163 142 142 145 136 135 132 132 128 125 121 117 106 108 98 105 104 101 74 60 48 37 43 45 39 32 31 33 31 23 13 7 360
174 172 175 181 187 185 175 160 159 149 147 141 133 132 131 130 129 128 126 130 127 126 115 108 104 107 105 91 66 41 34 17 25 38 45 44 36 27 22 18 11 3 357 350
179 178 175 182 181 166 169 168 162 144 142 129 125 127 123 125 124 129 129 124 122 118 104 91 74 95 97 70 46 29 24 36 45 38 32 29 24 18 13 10 3 357 348 348
186 186 184 175 170 169 166 161 150 165 139 132 133 133 127 124 128 138 132 130 134 131 113 100 89 97 75 63 43 40 53 39 32 25 22 18 14 10 2 356 353 350 349 348
181 180 177 180 177 172 160 160 155 150 141 140 135 130 127 128 126 127 129 128 128 124 111 97 91 83 86 81 67 56 42 28 19 14 12 10 6 2 356 352 352 355 350 350
180 177 173 170 171 170 163 153 147 138 140 141 146 144 140 131 126 122 124 118 123 114 109 103 95 86 74 60 43 31 21 14 8 6 1 1 3 359 352 349 350 355 351 345
191 185 182 170 172 178 169 160 151 145 146 145 146 144 140 139 137 137 131 121 124 124 121 119 113 87 45 25 19 15 11 6 1 356 356 356 359 355 348 349 351 352 349 345
194 195 190 184 181 185 175 169 162 155 152 148 149 158 147 141 138 137 134 139 140 138 136 116 78 40 12 1 4 7 4 1 358 352 351 353 355 353 349 349 351 349 347 345
200 198 192 188 192 189 186 167 182 167 163 156 154 155 150 148 152 151 154 157 155 140 110 70 12 345 339 342 351 358 356 354 352 349 348 350 352 351 347 348 350 347 345 344
197 201 198 193 193 192 187 188 180 174 175 169 175 170 165 169 172 170 170 171 177 181 189 276 312 324 326 332 342 348 349 348 346 344 343 345 348 347 345 347 348 346 343 342
201 202 202 203 197 197 194 189 189 185 183 182 187 189 189 183 188 191 196 196 198 217 236 277 300 313 316 323 331 338 343 342 339 337 339 342 344 343 344 345 346 343 341 341
205 207 207 202 203 203 199 194 192 188 196 198 195 198 209 209 203 207 208 227 238 239 255 271 289 300 308 316 325 331 334 335 333 333 336 338 339 340 343 343 343 341 340 340
208 207 206 206 210 209 205 203 200 199 201 205 206 214 208 219 218 228 234 229 243 253 266 279 288 292 306 315 323 326 328 329 328 331 333 334 335 338 340 340 340 339 338 338
209 206 207 209 209 211 208 208 208 208 211 214 213 216 214 228 230 240 241 245 245 258 267 277 286 298 308 314 318 318 320 322 324 327 330 332 334 336 338 338 337 336 337 336
210 207 208 207 209 213 212 210 212 212 215 218 223 224 222 221 232 238 248 261 265 264 265 272 283 293 303 306 309 312 315 318 322 325 328 331 333 334 335 335 335 335 336 334
211 207 209 211 210 214 215 214 214 216 219 219 224 224 230 224 232 249 251 260 266 271 278 281 285 295 301 305 309 310 314 317 320 322 327 329 330 332 331 332 333 335 333 331
213 210 211 212 214 215 218 219 219 220 224 227 230 231 236 237 237 238 253 258 266 272 276 282 291 297 301 304 307 309 311 315 318 323 325 327 327 329 329 330 332 332 330 328
215 213 213 213 218 218 215 223 225 224 226 229 233 237 240 242 244 243 248 259 267 274 281 288 292 297 302 305 306 307 311 314 319 322 323 324 326 327 327 328 330 328 329 329
217 218 216 216 223 220 218 220 227 231 229 232 238 242 246 249 245 242 245 254 268 267 278 286 289 295 300 302 303 307 311 315 319 320 321 322 324 324 325 327 327 328 327 327
220 220 220 219 222 222 223 223 225 228 231 233 237 245 251 256 258 256 254 258 260 275 283 284 289 294 296 299 303 307 312 315 316 317 318 319 320 321 324 325 326 324 324 327
219 220 222 221 221 222 222 227 228 228 231 235 237 241 249 252 256 259 258 259 266 272 275 279 286 290 294 298 302 308 310 311 313 314 314 316 317 321 322 323 324 321 324 326
219 220 220 223 221 222 227 230 232 230 231 235 237 240 245 252 256 259 261 265 270 275 278 281 284 286 292 299 304 304 307 309 308 309 312 314 317 320 320 322 320 319 322 323
219 219 220 222 221 223 227 232 232 234 233 236 239 242 245 252 257 259 264 268 273 275 276 281 286 290 294 297 299 301 304 305 305 309 310 312 317 316 320 318 318 320 321 323
219 221 220 222 225 222 227 229 233 234 234 235 241 244 246 249 255 262 266 268 270 271 277 281 284 287 290 294 296 299 301 302 305 307 309 313 314 316 316 317 318 320 318 319
221 220 221 221 226 228 229 231 234 236 236 238 238 244 249 252 254 258 262 267 270 273 277 280 282 285 290 292 295 299 300 302 304 306 310 312 312 311 316 317 319 319 315 319
222 224 224 222 224 229 229 233 235 237 238 240 242 244 249 251 255 261 265 268 271 274 277 280 283 287 289 292 295 296 299 301 302 306 309 309 309 313 318 317 315 315 316 317
Height
10952 10956 10959 10960 10961 10965 10968 10968 10971 10972 10976 10976 10974 10978 10981 10981 10983 10987 10992 10997 11001 11004 11007 11009 11010 11012 11014 11016 11020 11021 11022 11022 11023 11021 11019 11017 11014 11010 11006 11003 11001 10998 10997 10995
10953 10956 10959 10960 10962 10965 10966 10969 10974 10975 10978 10977 10975 10980 10982 10984 10987 10990 10996 11000 11005 11008 11010 11012 11013 11016 11018 11020 11022 11022 11021 11022 11022 11020 11019 11018 11015 11012 11008 11006 11003 11000 10998 10993
10952 10955 10959 10962 10962 10964 10965 10971 10978 10979 10980 10980 10979 10985 10986 10989 10992 10997 11001 11005 11008 11011 11014 11015 11016 11019 11020 11021 11022 11023 11024 11024 11023 11022 11021 11019 11016 11012 11008 11006 11003 11000 10995 10991
10950 10954 10957 10961 10966 10966 10968 10969 10972 10982 10980 10981 10985 10989 10990 10995 10997 11002 11006 11008 11011 11013 11016 11018 11020 11022 11022 11024 11025 11026 11025 11025 11024 11022 11020 11017 11015 11012 11008 11005 11002 10999 10993 10987
10948 10952 10956 10962 10960 10967 10970 10971 10972 10978 10980 10985 10989 10992 10994 10997 11001 11004 11008 11010 11014 11016 11018 11021 11022 11023 11025 11026 11027 11026 11026 11025 11023 11021 11020 11018 11016 11012 11007 11002 10999 10996 10989 10985
10946 10949 10953 10958 10962 10969 10969 10971 10974 10977 10981 10985 10992 10994 10996 10999 11003 11008 11011 11013 11016 11017 11020 11022 11024 11026 11027 11028 11028 11028 11027 11025 11022 11020 11019 11017 11014 11008 11003 10999 10996 10994 10987 10979
10948 10950 10952 10955 10962 10967 10970 10972 10975 10978 10982 10985 10992 10997 11000 11001 11002 11008 11012 11014 11017 11019 11021 11023 11026 11027 11028 11028 11028 11027 11025 11023 11021 11019 11016 11013 11010 11006 11000 10994 10988 10984 10982 10976
10940 10949 10953 10957 10961 10965 10967 10971 10975 10978 10981 10985 10989 10996 10998 11001 11006 11009 11012 11015 11018 11021 11022 11023 11024 11026 11027 11027 11027 11025 11023 11021 11018 11015 11012 11009 11006 11002 10996 10990 10983 10975 10969 10965
10938 10940 10944 10952 10957 10962 10967 10967 10972 10976 10981 10984 10989 10994 10997 11000 11005 11008 11013 11016 11018 11019 11020 11022 11024 11025 11025 11025 11025 11023 11021 11019 11015 11012 11008 11005 11000 10996 10991 10985 10978 10969 10961 10953
10926 10931 10940 10944 10950 10958 10963 10966 10969 10975 10980 10986 10991 10991 10994 10999 11003 11007 11010 11013 11015 11017 11018 11020 11021 11022 11022 11022 11021 11020 11018 11015 11011 11007 11003 11000 10995 10990 10984 10978 10971 10962 10955 10946
10917 10924 10931 10936 10948 10952 10958 10964 10969 10973 10978 10982 10986 10991 10992 10995 11001 11005 11008 11010 11012 11015 11016 11017 11018 11019 11019 11018 11017 11016 11014 11010 11007 11003 10999 10995 10989 10983 10977 10971 10964 10957 10948 10938
10911 10917 10925 10937 10940 10945 10950 10957 10963 10970 10976 10979 10983 10988 10992 10996 10998 11002 11006 11007 11010 11011 11013 11015 11016 11016 11015 11015 11013 11010 11008 11005 11001 10996 10992 10987 10982 10976 10969 10961 10954 10946 10937 10925
10897 10908 10914 10921 10929 10939 10949 10954 10959 10963 10965 10973 10979 10982 10986 10992 10996 11000 11001 11004 11005 11008 11009 11010 11011 11012 11012 11011 11009 11006 11001 10998 10994 10990 10985 10980 10973 10966 10960 10953 10946 10937 10928 10916
10875 10889 10906 10920 10931 10934 10939 10947 10952 10955 10962 10967 10973 10976 10983 10987 10991 10994 10996 10998 11001 11002 11006 11006 11006 11006 11008 11006 11004 11000 10996 10992 10988 10983 10978 10972 10965 10958 10952 10945 10937 10928 10918 10906
10864 10887 10898 10908 10916 10922 10931 10938 10943 10950 10954 10961 10963 10971 10976 10982 10983 10984 10988 10989 10991 10995 10999 11001 11002 11002 11003 11004 11000 10995 10991 10985 10980 10974 10968 10962 10955 10948 10941 10935 10928 10918 10907 10893
10858 10879 10885 10894 10903 10909 10919 10928 10936 10943 10945 10951 10955 10963 10966 10973 10975 10978 10983 10983 10981 10985 10988 10990 10994 10996 10994 10993 10991 10987 10981 10977 10972 10966 10960 10953 10947 10940 10933 10926 10919 10909 10896 10883
10853 10868 10873 10886 10893 10901 10908 10922 10932 10936 10939 10946 10951 10956 10956 10963 10971 10976 10977 10979 10976 10980 10980 10980 10982 10983 10984 10983 10980 10976 10972 10968 10963 10956 10951 10944 10939 10932 10923 10916 10909 10899 10887 10871
10845 10855 10866 10880 10879 10882 10916 10916 10923 10930 10934 10937 10940 10944 10948 10956 10964 10971 10973 10973 10972 10973 10972 10972 10972 10971 10972 10971 10967 10964 10961 10956 10951 10945 10939 10933 10927 10921 10914 10907 10899 10888 10878 10861
10836 10847 10859 10866 10868 10899 10900 10909 10914 10920 10928 10932 10932 10934 10938 10944 10955 10963 10968 10969 10966 10970 10972 10966 10967 10966 10964 10961 10957 10954 10950 10944 10938 10934 10928 10923 10917 10912 10905 10898 10887 10876 10867 10856
10824 10835 10847 10858 10865 10885 10899 10901 10904 10905 10916 10923 10927 10926 10930 10931 10935 10945 10957 10962 10960 10961 10967 10958 10957 10960 10957 10953 10948 10943 10939 10933 10928 10924 10918 10913 10909 10902 10895 10885 10875 10864 10858 10850
10804 10815 10831 10847 10859 10873 10884 10882 10882 10896 10909 10911 10919 10922 10920 10923 10924 10929 10941 10946 10956 10963 10957 10956 10952 10949 10948 10944 10941 10935 10931 10926 10920 10915 10910 10905 10899 10892 10884 10874 10865 10853 10847 10842
10783 10797 10815 10832 10849 10861 10870 10861 10873 10889 10891 10898 10907 10913 10916 10912 10911 10916 10932 10938 10942 10945 10943 10942 10944 10941 10939 10935 10931 10927 10923 10919 10913 10907 10902 10895 10890 10882 10872 10863 10853 10844 10836 10830
10757 10778 10800 10816 10841 10847 10844 10848 10855 10865 10881 10889 10894 10901 10908 10906 10902 10906 10919 10928 10930 10932 10928 10929 10927 10928 10927 10926 10923 10918 10915 10909 10901 10897 10889 10884 10879 10868 10861 10851 10842 10834 10826 10818
10748 10771 10791 10808 10817 10827 10821 10832 10840 10851 10869 10878 10882 10887 10893 10897 10891 10901 10912 10915 10916 10914 10920 10920 10918 10917 10918 10915 10911 10908 10904 10896 10890 10883 10877 10872 10864 10856 10849 10840 10832 10827 10818 10811
10750 10763 10778 10795 10800 10807 10820 10824 10828 10838 10854 10861 10872 10877 10882 10881 10885 10893 10903 10905 10903 10902 10909 10907 10904 10904 10905 10902 10899 10895 10890 10883 10876 10870 10865 10858 10850 10843 10838 10829 10822 10815 10807 10800
10741 10747 10762 10784 10785 10792 10806 10808 10810 10823 10840 10846 10859 10870 10865 10866 10880 10886 10891 10891 10888 10892 10894 10890 10888 10890 10890 10887 10885 10881 10877 10870 10862 10857 10852 10846 10838 10831 10826 10819 10812 10805 10799 10791